C/2012 K1 ( PanSTARRS )

Japanese version
Home page
Updated on July 20, 2014

---------------------------------------------------------------------

* Profile

Discovery Date May 19, 2012
Magnitude 19.7 mag
Discoverer Pan-STARRS 1 telescope (Haleakala)

* Pictures

* Orbital Elements

Epoch 2014 Aug. 11.0 TT = JDT 2456880.5
T 2014 Aug. 27.65265 TT                                 MPC
q   1.0545193            (2000.0)            P               Q
z  -0.0002035      Peri.  203.10795     -0.47150557     +0.78072101
 +/-0.0000006      Node   317.73829     +0.87392428     +0.47592439
e   1.0002146      Incl.  142.42837     +0.11806295     -0.40493294
From 2671 observations 2012 May 14-2014 Mar. 14, mean residual 0".4.

* Finding Charts

* Magnitudes Graph

        m1 = 5.5 + 5 log d + 8.5 log r

---------------------------------------------------------------------

The orbital elements are published on M.P.E.C. 2014-E86.
The charts are made with StellaNavigator Ver.8 (AstroArts).
The magnitudes graphs are made with Comet for Windows.

---------------------------------------------------------------------

Copyright(C) Seiichi Yoshida (comet@aerith.net). All rights reserved.